• Em Portugal
  • Lista de países
  • Para 7 dias
  • Temperatura da água
  • Mapas de satélite
  • Mapa do tempo
  • Widgets de tempo
  • user-avatar
    Iniciar Sessão

    Previsão horária em La-Plata

    Hoje, 24 Fevereiro, Sábado

    Tempo Temperatura Precipitação Vento Pressão Humidade
    00:00 +20°C° 0 mm 5 m/s 763 mmHg 76%
    01:00 +19°C° 0 mm 4 m/s 763 mmHg 76%
    02:00 +18°C° 0 mm 4 m/s 763 mmHg 70%
    03:00 +17°C° 0 mm 4 m/s 763 mmHg 72%
    04:00 +17°C° 0 mm 3 m/s 763 mmHg 75%
    05:00 +16°C° 0 mm 3 m/s 763 mmHg 77%
    06:00 +18°C° 0 mm 3 m/s 763 mmHg 71%
    07:00 +20°C° 0 mm 3 m/s 764 mmHg 65%
    08:00 +21°C° 0 mm 4 m/s 764 mmHg 60%
    09:00 +24°C° 0 mm 3 m/s 764 mmHg 52%
    10:00 +27°C° 0 mm 3 m/s 764 mmHg 44%
    11:00 +29°C° 0 mm 3 m/s 763 mmHg 36%
    12:00 +30°C° 0 mm 3 m/s 763 mmHg 34%
    13:00 +32°C° 0 mm 4 m/s 763 mmHg 32%
    14:00 +33°C° 0 mm 4 m/s 762 mmHg 30%
    15:00 +32°C° 0 mm 5 m/s 762 mmHg 33%
    16:00 +30°C° 0 mm 5 m/s 762 mmHg 36%
    17:00 +29°C° 0 mm 6 m/s 761 mmHg 40%
    18:00 +27°C° 0 mm 6 m/s 762 mmHg 46%
    19:00 +24°C° 0 mm 6 m/s 762 mmHg 53%
    20:00 +22°C° 0 mm 6 m/s 762 mmHg 60%
    21:00 +22°C° 0 mm 6 m/s 763 mmHg 63%
    22:00 +22°C° 0 mm 5 m/s 763 mmHg 65%
    23:00 +21°C° 0 mm 5 m/s 763 mmHg 67%

    Amanhã, 25 Fevereiro, Domingo

    Tempo Temperatura Precipitação Vento Pressão Humidade
    00:00 +21°C° 0 mm 5 m/s 763 mmHg 69%
    01:00 +21°C° 0 mm 4 m/s 763 mmHg 70%
    02:00 +21°C° 0 mm 4 m/s 763 mmHg 72%
    03:00 +20°C° 0 mm 3 m/s 763 mmHg 72%
    04:00 +20°C° 0 mm 3 m/s 763 mmHg 73%
    05:00 +20°C° 0 mm 3 m/s 763 mmHg 74%
    06:00 +21°C° 0 mm 3 m/s 763 mmHg 68%
    07:00 +24°C° 0 mm 3 m/s 763 mmHg 61%
    08:00 +26°C° 0 mm 3 m/s 763 mmHg 55%
    09:00 +27°C° 0 mm 3 m/s 763 mmHg 48%
    10:00 +29°C° 0 mm 3 m/s 763 mmHg 42%
    11:00 +30°C° 0 mm 3 m/s 763 mmHg 35%
    12:00 +32°C° 0 mm 4 m/s 762 mmHg 33%
    13:00 +33°C° 0 mm 4 m/s 761 mmHg 31%
    14:00 +34°C° 0 mm 5 m/s 761 mmHg 29%
    15:00 +33°C° 0 mm 6 m/s 761 mmHg 31%
    16:00 +32°C° 0 mm 6 m/s 760 mmHg 34%
    17:00 +30°C° 0 mm 7 m/s 760 mmHg 37%
    18:00 +28°C° 0 mm 7 m/s 760 mmHg 45%
    19:00 +26°C° 0 mm 6 m/s 761 mmHg 53%
    20:00 +23°C° 0 mm 6 m/s 761 mmHg 61%
    21:00 +23°C° 0 mm 6 m/s 761 mmHg 64%
    22:00 +23°C° 0 mm 6 m/s 762 mmHg 67%
    23:00 +22°C° 0 mm 6 m/s 762 mmHg 71%

    Depois de amanhã, 26 Fevereiro, Segunda-feira

    Tempo Temperatura Precipitação Vento Pressão Humidade
    00:00 +22°C° 0 mm 5 m/s 762 mmHg 72%
    01:00 +22°C° 0 mm 5 m/s 761 mmHg 73%
    02:00 +21°C° 0 mm 5 m/s 761 mmHg 75%
    03:00 +21°C° 0 mm 4 m/s 761 mmHg 77%
    04:00 +21°C° 0 mm 4 m/s 761 mmHg 79%
    05:00 +21°C° 0 mm 3 m/s 761 mmHg 81%
    06:00 +22°C° 0 mm 3 m/s 761 mmHg 75%
    07:00 +25°C° 0 mm 3 m/s 761 mmHg 69%
    08:00 +26°C° 0 mm 3 m/s 762 mmHg 63%
    09:00 +28°C° 0 mm 3 m/s 761 mmHg 55%
    10:00 +29°C° 0 mm 3 m/s 761 mmHg 47%
    11:00 +31°C° 0 mm 3 m/s 761 mmHg 39%
    12:00 +33°C° 0 mm 4 m/s 760 mmHg 36%
    13:00 +33°C° 0 mm 4 m/s 759 mmHg 33%
    14:00 +34°C° 0 mm 5 m/s 758 mmHg 31%
    15:00 +33°C° 0 mm 5 m/s 758 mmHg 32%
    16:00 +33°C° 0 mm 6 m/s 758 mmHg 34%
    17:00 +32°C° 0 mm 6 m/s 757 mmHg 35%
    18:00 +29°C° 0 mm 6 m/s 758 mmHg 44%
    19:00 +27°C° 0 mm 6 m/s 758 mmHg 53%
    20:00 +24°C° 0 mm 6 m/s 758 mmHg 62%
    21:00 +23°C° 0 mm 6 m/s 758 mmHg 65%
    22:00 +23°C° 0 mm 6 m/s 758 mmHg 67%
    23:00 +23°C° 0 mm 6 m/s 759 mmHg 70%

    27 Fevereiro, Terça-feira

    Tempo Temperatura Precipitação Vento Pressão Humidade
    00:00 +23°C° 0 mm 6 m/s 758 mmHg 70%
    01:00 +22°C° 0 mm 5 m/s 758 mmHg 69%
    02:00 +22°C° 0 mm 5 m/s 758 mmHg 69%
    03:00 +22°C° 0 mm 5 m/s 758 mmHg 70%
    04:00 +22°C° 0 mm 4 m/s 758 mmHg 71%
    05:00 +21°C° 0 mm 4 m/s 758 mmHg 72%
    06:00 +23°C° 0 mm 4 m/s 758 mmHg 67%
    07:00 +26°C° 0 mm 4 m/s 758 mmHg 62%
    08:00 +27°C° 0 mm 4 m/s 758 mmHg 57%
    09:00 +29°C° 0 mm 3 m/s 758 mmHg 49%
    10:00 +31°C° 0 mm 3 m/s 758 mmHg 42%
    11:00 +34°C° 0 mm 2 m/s 758 mmHg 34%
    12:00 +35°C° 0 mm 2 m/s 757 mmHg 30%
    13:00 +36°C° 0 mm 3 m/s 757 mmHg 27%
    14:00 +37°C° 0 mm 3 m/s 756 mmHg 23%
    15:00 +36°C° 0 mm 3 m/s 756 mmHg 25%
    16:00 +35°C° 0 mm 4 m/s 756 mmHg 27%
    17:00 +34°C° 0 mm 4 m/s 756 mmHg 29%
    18:00 +32°C° 0 mm 5 m/s 756 mmHg 38%
    19:00 +29°C° 0 mm 5 m/s 757 mmHg 46%
    20:00 +27°C° 0 mm 5 m/s 757 mmHg 54%
    21:00 +26°C° 0 mm 5 m/s 757 mmHg 59%
    22:00 +26°C° 0 mm 5 m/s 758 mmHg 64%
    23:00 +25°C° 0 mm 5 m/s 758 mmHg 68%

    28 Fevereiro, Quarta-feira

    Tempo Temperatura Precipitação Vento Pressão Humidade
    00:00 +25°C° 0 mm 5 m/s 758 mmHg 68%
    01:00 +23°C° 0 mm 4 m/s 758 mmHg 67%
    02:00 +23°C° 0 mm 4 m/s 758 mmHg 67%
    03:00 +23°C° 0 mm 4 m/s 758 mmHg 68%
    04:00 +22°C° 0 mm 3 m/s 758 mmHg 69%
    05:00 +23°C° 0 mm 2 m/s 759 mmHg 70%
    06:00 +25°C° 0 mm 3 m/s 759 mmHg 64%
    07:00 +26°C° 0 mm 3 m/s 759 mmHg 58%
    08:00 +28°C° 0 mm 3 m/s 760 mmHg 52%
    09:00 +30°C° 0 mm 3 m/s 759 mmHg 45%
    10:00 +32°C° 0 mm 4 m/s 759 mmHg 39%
    11:00 +34°C° 0 mm 4 m/s 759 mmHg 33%
    12:00 +35°C° 0 mm 5 m/s 759 mmHg 32%
    13:00 +35°C° 0 mm 5 m/s 758 mmHg 31%
    14:00 +35°C° 0 mm 6 m/s 758 mmHg 31%
    15:00 +34°C° 0 mm 6 m/s 758 mmHg 33%
    16:00 +33°C° 0 mm 7 m/s 758 mmHg 36%
    17:00 +32°C° 0 mm 7 m/s 758 mmHg 39%
    18:00 +29°C° 0 mm 7 m/s 758 mmHg 47%
    19:00 +28°C° 0 mm 7 m/s 759 mmHg 56%
    20:00 +26°C° 0 mm 7 m/s 759 mmHg 64%
    21:00 +24°C° 0 mm 7 m/s 759 mmHg 64%
    22:00 +24°C° 0 mm 7 m/s 759 mmHg 64%
    23:00 +24°C° 0 mm 6 m/s 760 mmHg 64%

    1 Março, Quinta-feira

    Tempo Temperatura Precipitação Vento Pressão Humidade
    00:00 +24°C° 0 mm 6 m/s 759 mmHg 66%
    01:00 +23°C° 0 mm 5 m/s 759 mmHg 67%
    02:00 +23°C° 0 mm 5 m/s 759 mmHg 69%
    03:00 +23°C° 0 mm 5 m/s 759 mmHg 70%
    04:00 +22°C° 0 mm 5 m/s 759 mmHg 72%
    05:00 +22°C° 0 mm 4 m/s 759 mmHg 73%
    06:00 +23°C° 0 mm 4 m/s 760 mmHg 68%
    07:00 +26°C° 0 mm 4 m/s 760 mmHg 63%
    08:00 +27°C° 0 mm 4 m/s 760 mmHg 58%
    09:00 +29°C° 0 mm 4 m/s 760 mmHg 50%
    10:00 +30°C° 0 mm 4 m/s 760 mmHg 42%
    11:00 +33°C° 0 mm 3 m/s 760 mmHg 35%
    12:00 +34°C° 0 mm 4 m/s 759 mmHg 32%
    13:00 +35°C° 0 mm 4 m/s 758 mmHg 29%
    14:00 +36°C° 0 mm 4 m/s 757 mmHg 26%
    15:00 +35°C° 0 mm 5 m/s 757 mmHg 29%
    16:00 +34°C° 0 mm 6 m/s 757 mmHg 33%
    17:00 +33°C° 0 mm 7 m/s 756 mmHg 36%
    18:00 +32°C° 0,1 mm 7 m/s 757 mmHg 48%
    19:00 +29°C° 0,1 mm 7 m/s 757 mmHg 59%
    20:00 +27°C° 0,1 mm 7 m/s 757 mmHg 71%
    21:00 +27°C° 0,2 mm 7 m/s 757 mmHg 70%
    22:00 +27°C° 0,2 mm 7 m/s 757 mmHg 70%
    23:00 +27°C° 0,2 mm 6 m/s 757 mmHg 69%
    Mostrar mais